| time (UTC) | temp F | wind direction | speed knots | gust knots | rain 1hr in | rain 24hr in | rain mn in | humidity % | barometer mb |
| 20260502181823 | 72 | 322 | 0.0 | 0.0 | 0.00 | 0.00 | 0.00 | 38 | 1015.5 |
| 20260502180819 | 73 | 322 | 0.0 | 0.0 | 0.00 | 0.00 | 0.00 | 35 | 1015.4 |
| 20260502163752 | 76 | 327 | 7.0 | 7.0 | 0.00 | 0.00 | 0.00 | 33 | 1015.7 |
| 20260502162752 | 76 | 345 | 2.6 | 8.7 | 0.00 | 0.00 | 0.00 | 32 | 1015.9 |
| 20260502161748 | 77 | 341 | 4.3 | 6.1 | 0.00 | 0.00 | 0.00 | 31 | 1016.0 |
| 20260502151724 | 77 | 2 | 4.3 | 9.6 | 0.00 | 0.00 | 0.00 | 33 | 1016.6 |
| 20260502150716 | 77 | 356 | 7.8 | 7.8 | 0.00 | 0.00 | 0.00 | 34 | 1016.7 |
| 20260502130617 | 75 | 333 | 3.5 | 10.4 | 0.00 | 0.00 | 0.00 | 38 | 1018.2 |
| 20260502123602 | 76 | 346 | 7.0 | 7.8 | 0.00 | 0.00 | 0.00 | 41 | 1018.6 |
| 20260502122602 | 77 | 18 | 6.1 | 10.4 | 0.00 | 0.00 | 0.00 | 40 | 1018.7 |
| 20260502115548 | 78 | 329 | 7.8 | 9.6 | 0.00 | 0.00 | 0.00 | 44 | 1019.3 |
| 20260502114547 | 78 | 328 | 8.7 | 8.7 | 0.00 | 0.00 | 0.00 | 42 | 1019.5 |
| 20260502113541 | 78 | 337 | 3.5 | 7.0 | 0.00 | 0.00 | 0.00 | 43 | 1019.6 |
| 20260502112533 | 78 | 338 | 4.3 | 7.8 | 0.00 | 0.00 | 0.00 | 42 | 1019.8 |
| 20260502111533 | 78 | 315 | 7.0 | 7.8 | 0.00 | 0.00 | 0.00 | 42 | 1020.1 |
| 20260502110531 | 77 | 303 | 7.0 | 7.0 | 0.00 | 0.00 | 0.00 | 41 | 1020.2 |
| 20260502105528 | 77 | 325 | 4.3 | 4.3 | 0.00 | 0.00 | 0.00 | 44 | 1020.3 |
| 20260502104518 | 76 | 327 | 3.5 | 4.3 | 0.00 | 0.00 | 0.00 | 45 | 1020.3 |
| 20260502101507 | 72 | 1 | 3.5 | 4.3 | 0.00 | 0.00 | 0.00 | 47 | 1020.9 |
| 20260502091443 | 72 | 339 | 1.7 | 3.5 | 0.00 | 0.00 | 0.00 | 48 | 1021.5 |
| 20260502090443 | 71 | 342 | 3.5 | 4.3 | 0.00 | 0.00 | 0.00 | 51 | 1021.7 |
| 20260502071406 | 62 | 241 | 0.0 | 0.0 | 0.00 | 0.00 | 0.00 | 58 | 1022.4 |
| 20260502062343 | 56 | 241 | 0.0 | 0.0 | 0.00 | 0.00 | 0.00 | 69 | 1022.9 |
| 20260502061339 | 55 | 241 | 0.0 | 0.0 | 0.00 | 0.00 | 0.00 | 70 | 1022.8 |
| 20260502060337 | 54 | 241 | 0.0 | 0.0 | 0.00 | 0.00 | 0.00 | 72 | 1022.9 |
| 20260502055335 | 53 | 241 | 0.0 | 0.0 | 0.00 | 0.00 | 0.00 | 74 | 1022.9 |
| 20260502054332 | 52 | 241 | 0.0 | 0.0 | 0.00 | 0.00 | 0.00 | 75 | 1023.0 |
| 20260502045316 | 49 | 241 | 0.0 | 0.0 | 0.00 | 0.00 | 0.00 | 77 | 1022.6 |
| 20260502044315 | 49 | 241 | 0.0 | 0.0 | 0.00 | 0.00 | 0.00 | 77 | 1022.7 |
| 20260502043310 | 50 | 241 | 0.0 | 0.0 | 0.00 | 0.00 | 0.00 | 76 | 1022.7 |
| 20260502042306 | 50 | 241 | 0.0 | 0.0 | 0.00 | 0.00 | 0.00 | 76 | 1022.6 |
| 20260502040302 | 50 | 241 | 0.0 | 0.0 | 0.00 | 0.00 | 0.00 | 76 | 1022.7 |
| 20260502035251 | 50 | 241 | 0.0 | 0.0 | 0.00 | 0.00 | 0.00 | 75 | 1022.5 |
| 20260502034247 | 50 | 241 | 0.0 | 0.9 | 0.00 | 0.00 | 0.00 | 75 | 1022.5 |
| 20260502033243 | 50 | 241 | 0.0 | 0.0 | 0.00 | 0.00 | 0.00 | 75 | 1022.5 |
| 20260502030238 | 51 | 241 | 0.0 | 0.0 | 0.00 | 0.00 | 0.00 | 73 | 1022.5 |
| 20260502025228 | 51 | 241 | 0.0 | 0.0 | 0.00 | 0.00 | 0.00 | 73 | 1022.6 |
| 20260502024218 | 52 | 241 | 0.0 | 0.0 | 0.00 | 0.00 | 0.00 | 72 | 1022.6 |
| 20260502023214 | 52 | 241 | 0.0 | 0.0 | 0.00 | 0.00 | 0.00 | 72 | 1022.7 |
| 20260502022214 | 52 | 241 | 0.0 | 0.0 | 0.00 | 0.00 | 0.00 | 72 | 1022.6 |
| 20260502021211 | 52 | 241 | 1.7 | 2.6 | 0.00 | 0.00 | 0.00 | 71 | 1022.6 |
| 20260502020200 | 52 | 243 | 0.9 | 1.7 | 0.00 | 0.00 | 0.00 | 70 | 1022.6 |
| 20260502015156 | 53 | 244 | 0.9 | 3.5 | 0.00 | 0.00 | 0.00 | 70 | 1022.6 |
| 20260502014156 | 53 | 246 | 3.5 | 3.5 | 0.00 | 0.00 | 0.00 | 68 | 1022.6 |
| 20260502013151 | 54 | 250 | 0.0 | 0.0 | 0.00 | 0.00 | 0.00 | 67 | 1022.6 |
| 20260502012143 | 54 | 251 | 1.7 | 2.6 | 0.00 | 0.00 | 0.00 | 67 | 1022.8 |
| 20260502011135 | 54 | 254 | 0.0 | 0.0 | 0.00 | 0.00 | 0.00 | 67 | 1022.8 |
| 20260502010135 | 54 | 254 | 1.7 | 1.7 | 0.00 | 0.00 | 0.00 | 66 | 1022.7 |
| 20260502004126 | 55 | 256 | 1.7 | 2.6 | 0.00 | 0.00 | 0.00 | 65 | 1022.9 |
| 20260502003119 | 56 | 256 | 0.0 | 0.0 | 0.00 | 0.00 | 0.00 | 64 | 1022.9 |
| 20260502001108 | 56 | 257 | 3.5 | 6.1 | 0.00 | 0.00 | 0.00 | 63 | 1022.8 |
| 20260501234056 | 57 | 244 | 1.7 | 1.7 | 0.00 | 0.00 | 0.00 | 61 | 1023.0 |
| 20260501233051 | 57 | 249 | 0.0 | 0.9 | 0.00 | 0.00 | 0.00 | 61 | 1023.0 |
| 20260501232045 | 57 | 248 | 5.2 | 5.2 | 0.00 | 0.00 | 0.00 | 60 | 1023.0 |
| 20260501231044 | 57 | 175 | 0.0 | 2.6 | 0.00 | 0.00 | 0.00 | 60 | 1023.0 |
| 20260501230043 | 59 | 175 | 0.0 | 0.0 | 0.00 | 0.00 | 0.00 | 58 | 1023.0 |
| 20260501225036 | 60 | 175 | 1.7 | 3.5 | 0.00 | 0.00 | 0.00 | 56 | 1023.0 |
| 20260501224029 | 61 | 175 | 0.9 | 0.9 | 0.00 | 0.00 | 0.00 | 54 | 1023.0 |
| 20260501223030 | 62 | 158 | 3.5 | 3.5 | 0.00 | 0.00 | 0.00 | 52 | 1023.1 |
| 20260501222030 | 62 | 144 | 7.0 | 10.4 | 0.00 | 0.00 | 0.00 | 52 | 1023.1 |
| 20260501221023 | 61 | 196 | 4.3 | 6.1 | 0.00 | 0.00 | 0.00 | 53 | 1023.2 |
| 20260501220020 | 61 | 129 | 4.3 | 7.0 | 0.00 | 0.00 | 0.00 | 54 | 1023.1 |
| 20260501213004 | 62 | 147 | 4.3 | 5.2 | 0.00 | 0.00 | 0.00 | 53 | 1023.0 |
| 20260501211959 | 62 | 152 | 1.7 | 6.1 | 0.00 | 0.00 | 0.00 | 53 | 1023.0 |
| 20260501210953 | 63 | 124 | 3.5 | 3.5 | 0.00 | 0.00 | 0.00 | 53 | 1022.8 |
| 20260501205952 | 63 | 150 | 7.0 | 11.3 | 0.00 | 0.00 | 0.00 | 52 | 1022.7 |
| 20260501204949 | 63 | 163 | 9.6 | 9.6 | 0.00 | 0.00 | 0.00 | 52 | 1022.7 |
| 20260501203944 | 63 | 141 | 9.6 | 9.6 | 0.00 | 0.00 | 0.00 | 52 | 1022.6 |
| 20260501202943 | 62 | 112 | 6.1 | 7.8 | 0.00 | 0.00 | 0.00 | 53 | 1022.6 |
| 20260501194927 | 61 | 1 | 0.0 | 0.0 | 0.00 | 0.00 | 0.00 | 53 | 1022.4 |
| 20260501193922 | 62 | 1 | 0.0 | 0.0 | 0.00 | 0.00 | 0.00 | 54 | 1022.4 |
| 20260501192922 | 63 | 1 | 0.0 | 0.0 | 0.00 | 0.00 | 0.00 | 54 | 1022.3 |
| 20260501191920 | 63 | 1 | 0.0 | 0.0 | 0.00 | 0.00 | 0.00 | 52 | 1022.2 |
| 20260501190914 | 64 | 1 | 0.0 | 0.0 | 0.00 | 0.00 | 0.00 | 51 | 1022.3 |
| 20260501185909 | 65 | 1 | 0.0 | 0.0 | 0.00 | 0.00 | 0.00 | 50 | 1022.2 |
| 20260501184908 | 66 | 1 | 0.0 | 0.0 | 0.00 | 0.00 | 0.00 | 48 | 1022.1 |
| 20260501183906 | 66 | 1 | 0.0 | 0.0 | 0.00 | 0.00 | 0.00 | 47 | 1021.9 |
| 20260501182906 | 68 | 1 | 0.0 | 0.0 | 0.00 | 0.00 | 0.00 | 45 | 1022.0 |